Location: Anumalkud?ru
(16.4847°N, 80.6636°E)
Time: 15:01:12
(UTC+00:00)

Meteor 2-13 Rocket - Pass Details

Date: 11 April 2026
Orbit: 936 x 956 km, 82.5° (Epoch: 11 May)

Event Time Altitude Azimuth Distance (km) Brightness Sun altitude
Rises 13:53:16 0° 358° (N) 3,626 7.7 -15.2°
Reaches altitude 10° 13:55:46 10° 0° (N) 2,681 7.0 -15.8°
Maximum altitude 14:01:54 74° 85° (E) 992 4.4 -17.2°
Drops below altitude 10° 14:08:01 10° 170° (S) 2,676 6.6 -18.6°
Sets 14:10:31 0° 172° (S) 3,619 7.3 -19.2°
